DL2ZZM-13 Weather Reports


time (UTC)temp
F
wind
direction
speed
knots
gust
knots
rain 1hr
in
rain 24hr
in
rain mn
in
humidity
%
barometer
mb
20260506013315 45 0.0 0.0 0.00 0.09 0.00 93 1009.4
20260506012315 46 0.0 0.0 0.00 0.09 0.00 93 1009.2
20260506011315 46 0.0 0.0 0.00 0.09 0.00 93 1009.0
20260506010337 46 270 1.7 2.6 0.00 0.09 0.00 93 1008.9
20260506005317 46 270 1.7 2.6 0.00 0.09 0.00 93 1009.1
20260506004317 46 270 1.7 2.6 0.00 0.09 0.00 93 1009.0
20260506003317 47 248 1.7 2.6 0.00 0.09 0.00 92 1009.2
20260506002337 47 0.0 0.0 0.00 0.09 0.00 93 1009.4
20260506001317 47 0.0 0.0 0.00 0.09 0.00 92 1009.6
20260506000317 47 225 2.6 3.5 0.00 0.09 0.00 92 1009.8
20260505235317 47 248 1.7 2.6 0.00 0.09 0.00 92 1009.8
20260505234317 48 248 1.7 2.6 0.00 0.09 0.00 92 1009.9
20260505233317 48 248 3.5 4.3 0.00 0.09 0.00 92 1010.0
20260505232317 48 225 1.7 2.6 0.00 0.09 0.00 92 1010.0
20260505231317 48 225 0.9 1.7 0.00 0.09 0.00 92 1010.0
20260505230337 49 0.0 0.0 0.00 0.09 0.00 91 1010.1
20260505225317 49 225 0.9 1.7 0.00 0.09 0.00 91 1010.1
20260505224317 49 0.0 0.0 0.00 0.09 0.00 91 1010.2
20260505223317 49 0.0 0.0 0.00 0.09 0.00 91 1010.1
20260505222437 49 225 1.7 2.6 0.00 0.09 0.00 91 1010.1
20260505221317 50 225 3.5 4.3 0.00 0.09 0.00 91 1010.1
20260505220317 50 225 4.3 6.1 0.00 0.09 0.00 91 1009.9
20260505215316 50 248 5.2 8.7 0.00 0.10 0.09 91 1009.9
20260505214336 50 225 3.5 4.3 0.00 0.10 0.09 91 1009.8
20260505213316 50 248 4.3 7.0 0.00 0.10 0.09 91 1010.0
20260505212356 51 225 3.5 5.2 0.00 0.10 0.09 91 1010.0
20260505211316 51 225 3.5 5.2 0.00 0.10 0.09 91 1010.0
20260505210316 51 203 3.5 5.2 0.00 0.10 0.09 91 1010.3
20260505205316 51 203 4.3 7.0 0.00 0.12 0.09 91 1010.1
20260505204316 52 225 3.5 4.3 0.00 0.12 0.09 91 1010.0
20260505203315 52 203 3.5 5.2 0.00 0.12 0.09 91 1009.9
20260505202316 52 203 4.3 6.1 0.00 0.12 0.09 91 1009.9
20260505201315 52 225 4.3 7.0 0.00 0.12 0.09 91 1009.7
20260505200315 52 225 2.6 4.3 0.01 0.12 0.09 90 1009.5
20260505195315 52 225 1.7 3.5 0.01 0.12 0.09 90 1009.4
20260505193316 53 203 2.6 3.5 0.01 0.12 0.09 89 1009.2
20260505192315 53 225 1.7 2.6 0.01 0.12 0.09 89 1009.2
20260505191315 53 270 1.7 3.5 0.01 0.12 0.09 88 1009.3
20260505190315 54 248 1.7 2.6 0.00 0.11 0.09 87 1009.4
20260505185315 54 248 2.6 3.5 0.00 0.11 0.09 86 1009.5
20260505184335 54 293 2.6 6.1 0.00 0.11 0.09 85 1009.2
20260505183315 55 270 4.3 7.0 0.00 0.11 0.09 85 1009.3
20260505182315 55 293 2.6 3.5 0.00 0.11 0.09 85 1009.4
20260505181315 55 270 2.6 6.1 0.00 0.11 0.09 85 1009.2
20260505180315 56 293 2.6 3.5 0.00 0.11 0.09 85 1009.1
20260505175335 56 270 1.7 2.6 0.00 0.11 0.09 84 1009.0
20260505174335 57 270 2.6 3.5 0.00 0.11 0.09 84 1008.9
20260505173315 57 293 1.7 3.5 0.00 0.11 0.09 83 1008.9
20260505172315 57 225 3.5 4.3 0.00 0.11 0.09 83 1008.8
20260505171315 58 293 2.6 4.3 0.00 0.11 0.09 84 1008.8
20260505165335 57 270 0.9 0.9 0.00 0.11 0.09 84 1008.7
20260505164317 57 270 1.7 2.6 0.00 0.11 0.09 85 1008.8
20260505163317 57 338 0.9 2.6 0.00 0.11 0.09 86 1008.9
20260505162337 56 23 0.9 2.6 0.00 0.11 0.09 86 1008.9
20260505161317 56 315 1.7 1.7 0.00 0.11 0.09 87 1008.9
20260505160317 55 0 3.5 4.3 0.00 0.11 0.09 89 1008.9
20260505153317 54 315 1.7 3.5 0.00 0.11 0.09 90 1009.4
20260505152317 55 293 2.6 4.3 0.00 0.11 0.09 90 1009.3
20260505151317 55 338 2.6 5.2 0.00 0.11 0.09 90 1009.2
20260505150417 55 293 4.3 6.1 0.00 0.11 0.09 90 1009.3
20260505140317 56 248 3.5 6.1 0.09 0.11 0.09 89 1009.9
20260505124317 64 338 1.7 2.6 0.00 0.02 0.00 68 1009.4
20260505123317 64 338 0.9 0.9 0.00 0.02 0.00 68 1009.4
20260505122336 64 315 1.7 2.6 0.00 0.02 0.00 69 1009.4
20260505121317 64 338 3.5 4.3 0.00 0.02 0.00 67 1009.4
20260505120337 65 0 3.5 5.2 0.00 0.02 0.00 67 1009.3
20260505115316 65 0 1.7 3.5 0.00 0.02 0.00 67 1009.3
20260505114317 65 23 0.9 3.5 0.00 0.02 0.00 67 1009.2
20260505113316 65 0.0 0.0 0.00 0.02 0.00 66 1009.1
20260505112316 66 315 1.7 2.6 0.00 0.02 0.00 65 1009.0
20260505111317 66 225 1.7 2.6 0.00 0.02 0.00 66 1009.1
20260505110316 66 315 2.6 3.5 0.00 0.02 0.00 65 1009.2
20260505101316 69 203 0.9 1.7 0.00 0.02 0.00 62 1009.6
20260505100316 67 293 3.5 4.3 0.00 0.02 0.00 62 1009.7
20260505095336 66 90 0.9 1.7 0.00 0.02 0.00 64 1009.7
20260505094316 66 293 1.7 1.7 0.00 0.02 0.00 66 1009.9
20260505093316 65 293 1.7 2.6 0.00 0.02 0.00 66 1009.9
20260505092436 66 225 1.7 2.6 0.00 0.02 0.00 66 1010.0
20260505091316 65 0.0 0.9 0.00 0.02 0.00 65 1010.0
20260505090316 65 45 1.7 2.6 0.00 0.02 0.00 69 1010.1
20260505085316 64 135 0.9 1.7 0.00 0.02 0.00 71 1010.1
20260505084316 64 0.0 0.9 0.00 0.02 0.00 71 1010.2
20260505083316 63 135 2.6 3.5 0.00 0.02 0.00 72 1010.3
20260505082316 63 90 1.7 3.5 0.00 0.02 0.00 71 1010.2
20260505081316 63 113 1.7 2.6 0.00 0.02 0.00 71 1010.3
20260505080316 64 90 1.7 2.6 0.00 0.02 0.00 71 1010.5
20260505075316 64 135 1.7 3.5 0.00 0.02 0.00 72 1010.5
20260505074336 63 68 3.5 5.2 0.00 0.02 0.00 71 1010.6
20260505073316 64 0 1.7 1.7 0.00 0.02 0.00 70 1010.6
20260505072336 63 90 1.7 2.6 0.00 0.02 0.00 71 1010.6
20260505071356 64 113 1.7 3.5 0.00 0.02 0.00 70 1010.8
20260505070316 62 45 2.6 4.3 0.00 0.02 0.00 70 1010.7
20260505065316 63 338 2.6 3.5 0.00 0.02 0.00 70 1010.7
20260505064316 63 45 3.5 4.3 0.00 0.02 0.00 70 1010.9
20260505063316 63 0 1.7 2.6 0.00 0.02 0.00 71 1010.9
20260505062316 63 23 4.3 7.8 0.00 0.02 0.00 70 1010.9
20260505061316 61 45 2.6 4.3 0.00 0.02 0.00 73 1011.0
20260505060336 59 45 0.9 2.6 0.00 0.02 0.00 79 1011.0
20260505055316 55 68 1.7 3.5 0.00 0.02 0.00 89 1011.1
20260505054316 53 0 1.7 3.5 0.00 0.02 0.00 92 1011.1
20260505053316 51 0.0 0.0 0.00 0.02 0.00 93 1011.2
20260505052316 50 0.0 0.9 0.00 0.02 0.00 92 1011.0
20260505051316 49 23 0.9 0.9 0.00 0.02 0.00 91 1011.1
20260505050336 48 0.0 0.9 0.00 0.02 0.00 91 1011.0
20260505041316 48 0.0 0.0 0.00 0.02 0.00 87 1011.1
20260505040316 49 0.0 0.0 0.00 0.02 0.00 88 1011.2
20260505035315 49 0 2.6 3.5 0.00 0.02 0.00 89 1011.3
20260505034336 49 338 1.7 2.6 0.00 0.02 0.00 89 1011.5
20260505033316 48 338 1.7 2.6 0.00 0.02 0.00 88 1011.5
20260505032315 48 0.0 0.0 0.00 0.02 0.00 87 1011.7
20260505031315 49 293 0.9 1.7 0.00 0.02 0.00 86 1011.7
20260505030336 49 293 0.9 1.7 0.00 0.02 0.00 85 1011.9
20260505025335 50 0 0.9 1.7 0.00 0.02 0.00 84 1012.1
20260505024316 51 0 2.6 3.5 0.00 0.02 0.00 85 1012.0
20260505023315 51 338 1.7 3.5 0.00 0.02 0.00 86 1012.1
20260505022335 51 338 2.6 3.5 0.00 0.02 0.00 87 1012.2
20260505021315 51 338 1.7 3.5 0.00 0.02 0.00 87 1012.4
20260505020315 51 0.0 0.0 0.00 0.02 0.00 86 1012.5
20260505015315 51 0.0 0.0 0.00 0.02 0.00 85 1012.6
20260505014315 51 0.0 0.0 0.00 0.02 0.00 85 1012.7